Moose, Wyoming, United States (83012)
Lat: 43.66N, Lon: 110.72W
Wx Zone: WYZ013
Local Info
Past Weather Observations for Tuesday, March 24, 2015

NOTE: This archive is for the closest National Weather Service station to Moose. Information may differ from the station used for current weather conditions.

Click here for Long-term Archive

Time Weather Temperature Dewpoint Humidity Pressure Winds Precip Visibility
23:55
Overcast
28°F / -2°C 27°F / -3°C 93% 30.06 in
(1018 mb)
SSE 6.9 mph
(SSE 11 kph)
- 10SM
23:35
Mostly Cloudy
28°F / -2°C 28°F / -2°C 100% 30.06 in
(1018 mb)
S 6.9 mph
(S 11 kph)
- 9SM
23:15
Overcast
28°F / -2°C 28°F / -2°C 100% 30.06 in
(1018 mb)
S 9.2 mph
(S 15 kph)
- 2SM
22:55
Overcast
28°F / -2°C 27°F / -3°C 93% 30.06 in
(1018 mb)
SW 4.6 mph
(SW 7 kph)
0.01 in
(0.25 mm)
4SM
22:35
Overcast
27°F / -3°C 27°F / -3°C 100% 30.06 in
(1018 mb)
S 6.9 mph
(S 11 kph)
- 10SM
22:15
Mostly Cloudy
27°F / -3°C 27°F / -3°C 100% 30.06 in
(1018 mb)
S 6.9 mph
(S 11 kph)
- 10SM
21:55
Overcast
28°F / -2°C 28°F / -2°C 100% 30.04 in
(1017 mb)
S 12.7 mph
(S 20 kph)
- 1 1/2SM
21:35
Overcast
28°F / -2°C 28°F / -2°C 100% 30.04 in
(1017 mb)
SW 9.2 mph
(SW 15 kph)
- 2SM
21:15
Overcast
28°F / -2°C 28°F / -2°C 100% 30.04 in
(1017 mb)
S 12.7 mph
(S 20 kph)
- 1 1/4SM
20:55
Overcast
28°F / -2°C 28°F / -2°C 100% 30.04 in
(1017 mb)
S 15 mph
(S 24 kph)
- 1SM
20:35
Overcast
28°F / -2°C 28°F / -2°C 100% 30.01 in
(1016 mb)
S 13.8 mph
(S 22 kph)
- 1 1/2SM
20:15
Overcast
28°F / -2°C 28°F / -2°C 100% 30.01 in
(1016 mb)
S 16.1 mph
(S 26 kph)
- 1/2SM
19:55
Overcast
28°F / -2°C 28°F / -2°C 100% 30.01 in
(1016 mb)
S 13.8 mph
(S 22 kph)
0.01 in
(0.25 mm)
1 1/2SM
19:10
Overcast
Light Snow
28°F / -2°C 28°F / -2°C 100% 29.98 in
(1015 mb)
S 6.9 mph
(S 11 kph)
- 2SM
18:52
Overcast
Showers In Vicinity
34°F / 1°C 23°F / -5°C 65% 29.95 in
(1014 mb)
S 11.5 mph
(S 19 kph)
- 10SM
17:51
Mostly Cloudy
Showers In Vicinity
36°F / 2°C 21°F / -6°C 56% 29.95 in
(1014 mb)
S 11.5 mph
(S 19 kph)
- 10SM
16:55
Mostly Cloudy
Showers In Vicinity
36°F / 2°C 21°F / -6°C 56% 29.92 in
(1013 mb)
SW 17.3 mph
(SW 28 kph)
- 10SM
15:51
Mostly Cloudy
Showers In Vicinity
36°F / 2°C 21°F / -6°C 56% 29.92 in
(1013 mb)
SW 15 mph
(SW 24 kph)
- 7SM
14:51
Overcast
Showers In Vicinity
36°F / 2°C 27°F / -3°C 70% 29.92 in
(1013 mb)
SW 15 mph
(SW 24 kph)
- 7SM
14:03
Overcast
Light Snow
34°F / 1°C 28°F / -2°C 81% 29.92 in
(1013 mb)
SW 15 mph
(SW 24 kph)
- 5SM
13:51
Overcast
Light Snow
32°F / 0°C 30°F / -1°C 93% 29.92 in
(1013 mb)
S 11.5 mph
(S 19 kph)
- 1 1/2SM
12:51
Overcast
Light Snow
30°F / -1°C 30°F / -1°C 100% 29.92 in
(1013 mb)
S 11.5 mph
(S 19 kph)
- 2SM
11:51
Overcast
Light Snow
30°F / -1°C 28°F / -2°C 93% 29.95 in
(1014 mb)
S 11.5 mph
(S 19 kph)
- 1SM
10:51
Overcast
Light Snow
28°F / -2°C 27°F / -3°C 93% 29.95 in
(1014 mb)
S 10.4 mph
(S 17 kph)
- 10SM
09:51
Overcast
Light Snow
28°F / -2°C 28°F / -2°C 100% 29.98 in
(1015 mb)
SSE 9.2 mph
(SSE 15 kph)
- 1SM
08:51
Overcast
Light Snow
28°F / -2°C 27°F / -3°C 93% 29.98 in
(1015 mb)
S 9.2 mph
(S 15 kph)
- 1 1/2SM
07:51
Overcast
Light Snow
27°F / -3°C 25°F / -4°C 93% 30.01 in
(1016 mb)
SSE 8.1 mph
(SSE 13 kph)
- 1 1/2SM
06:55
Overcast
Light Snow
27°F / -3°C 25°F / -4°C 93% 30.01 in
(1016 mb)
SSE 13.8 mph
(SSE 22 kph)
- 1 1/2
05:51
Overcast
30°F / -1°C 19°F / -7°C 64% 30.01 in
(1016 mb)
S 16.1 mph
(S 26 kph)
- 10SM
05:35
Overcast
30°F / -1°C 19°F / -7°C 64% 30.01 in
(1016 mb)
S 15 mph
(S 24 kph)
- 10SM
05:15
Overcast
30°F / -1°C 18°F / -8°C 59% 30.01 in
(1016 mb)
S 16.1 mph
(S 26 kph)
- 10SM
04:55
Overcast
30°F / -1°C 18°F / -8°C 59% 30.01 in
(1016 mb)
S 18.4 mph
(S 30 kph)
- 10SM
04:35
Mostly Cloudy
30°F / -1°C 18°F / -8°C 59% 30.01 in
(1016 mb)
S 19.6 mph
(S 32 kph)
- 10SM
04:15
Mostly Cloudy
30°F / -1°C 18°F / -8°C 59% 30.01 in
(1016 mb)
S 17.3 mph
(S 28 kph)
- 10SM
03:55
Overcast
30°F / -1°C 19°F / -7°C 64% 30.01 in
(1016 mb)
S 18.4 mph
(S 30 kph)
- 10SM
03:35
Overcast
30°F / -1°C 19°F / -7°C 64% 30.01 in
(1016 mb)
SSE 23 mph
(SSE 37 kph)
- 10SM
03:15
Mostly Cloudy
30°F / -1°C 19°F / -7°C 64% 30.01 in
(1016 mb)
SSE 23 mph
(SSE 37 kph)
- 10SM
02:55
Mostly Cloudy
28°F / -2°C 19°F / -7°C 69% 30.01 in
(1016 mb)
S 17.3 mph
(S 28 kph)
- 10SM
02:35
Overcast
30°F / -1°C 19°F / -7°C 64% 30.01 in
(1016 mb)
S 17.3 mph
(S 28 kph)
- 10SM
02:15
Overcast
30°F / -1°C 21°F / -6°C 69% 30.01 in
(1016 mb)
SW 11.5 mph
(SW 19 kph)
- 10SM
01:55
Overcast
30°F / -1°C 21°F / -6°C 69% 30.01 in
(1016 mb)
SSE 12.7 mph
(SSE 20 kph)
- 10SM
01:35
Overcast
30°F / -1°C 21°F / -6°C 69% 30.01 in
(1016 mb)
S 20.7 mph
(S 33 kph)
- 10SM
01:15
Overcast
30°F / -1°C 25°F / -4°C 80% 30.01 in
(1016 mb)
S 13.8 mph
(S 22 kph)
- 10SM
00:55
Overcast
30°F / -1°C 23°F / -5°C 75% 30.01 in
(1016 mb)
S 20.7 mph
(S 33 kph)
- 9SM
00:35
Overcast
30°F / -1°C 23°F / -5°C 75% 29.98 in
(1015 mb)
S 20.7 mph
(S 33 kph)
- 10SM
00:15
Overcast
32°F / 0°C 21°F / -6°C 64% 30.01 in
(1016 mb)
S 18.4 mph
(S 30 kph)
- 10SM
Time Weather Temperature Dewpoint Humidity Pressure Winds Precip Visibility


Weather for websites

WeatherForYou.com, LLC is not responsible for any damages or problems caused by this service. Current weather conditions are obtained from the closest station including government and personal stations which may have varying degrees of accuracy. Weather forecasts are derived from the NOAA NDFD. Like all things, this site belongs to Jesus Christ... He just trusts me to maintain it. If you have any questions or comments email webmaster@weatherforyou.com

Copyright © 2015, WeatherForYou.com LLC. All rights reserved.